Weather in Kenzino

Russia / Ryazan Oblast     53°45′50″N   40°22′44″E
temp.,
°C
wind,
m/s
gust,
m/s
humid.,
%
clouds,
%
prec.,
mm/h
press.,
hPa
HPBL,
m
21 january, fri
fri2100:00−11s71789100 0.0 1011391
03:00−10s71693100 0.1 1010434
06:00−9s71593100 0.4 1007440
09:00−8sse81794100 1.3 1006537
12:00−7sse91894100 1.2 1005671
15:00−6sse81693100 2.1 1003708
18:00−6sse71594100 0.3 1002493
21:00−3sw5119189 1.1 1002658
22 january, sat
sat2200:00−8s61293100 0.0 1004288
03:00−9s6139489 0.0 1005323
06:00−9sse61394100 0.0 1006323
09:00−10sse5119582 0.0 1008239
12:00−9sse599572 0.0 1010249
15:00−8sse489563 0.1 1011242
18:00−10sse389680 0.0 1013162
21:00−12sse369889 0.1 101584
23 january, sun
sun2300:00−13sse3497100 0.0 101762
03:00−12sse3497100 0.1 101970
06:00−12sse359663 0.1 102196
09:00−18sse2210078 0.1 102431
12:00−11se119541 0.0 102756
15:00−11ne2296100 0.0 102820
18:00−14ne3498100 0.0 103144
21:00−13ne379769 0.0 103291
24 january, mon
mon2400:00−13nne499794 0.0 1033115
03:00−10ne51296100 0.1 1033218
06:00−8ne5119699 0.1 1032226
09:00−8ne499692 0.1 1033199
12:00−7ene499257 0.0 1034300
15:00−7ene4890100 0.0 1033249
18:00−10ene369517 0.0 103497
21:00−13e369717 0.0 103372
25 january, tue
tue2500:00−17ese239885 0.0 103339
03:00−18e229923 0.0 103219
06:00−17se349770 0.0 103143
09:00−16se369597 0.0 103081
12:00−12sse389142 0.0 1028165
15:00−11sse37936 0.0 1026148
18:00−13sse389746 0.0 102596
21:00−14sse399767 0.0 1024129